Theta_e
312 311 310 310 311 311 310 308 308 308 309 309 308 307 303 301 304 305 305 306 307 306 306 306 306 306 306 306 307 307 307 308 309 310 308 308 308 308 308 309 309 309 309
312 311 311 310 311 311 309 308 308 308 309 309 308 306 302 300 300 304 306 306 307 306 306 306 307 307 306 307 306 307 307 308 308 310 308 307 307 306 306 307 307 307 307
312 311 311 310 310 311 310 308 308 309 309 308 308 307 304 302 301 302 306 307 307 305 305 306 306 305 306 306 306 307 307 308 308 310 307 306 306 306 306 305 305 305 305
312 311 311 310 309 309 310 308 309 310 310 308 308 308 307 304 302 302 305 306 307 305 304 305 305 304 306 306 306 307 308 309 310 308 307 306 306 305 306 305 305 303 303
312 311 310 309 309 309 309 309 310 311 310 309 308 308 307 305 303 302 304 306 307 305 303 302 303 304 305 306 306 306 307 308 308 307 307 306 306 306 305 306 306 305 303
311 310 310 309 309 310 310 309 310 311 310 310 309 309 308 306 304 302 304 304 306 306 304 303 301 303 304 306 306 305 306 307 307 307 307 307 307 306 305 306 305 305 306
312 311 309 309 310 310 310 309 311 311 311 311 310 309 309 306 304 302 304 304 305 306 305 304 302 302 304 305 307 306 306 305 306 306 307 307 306 305 305 305 306 307 306
311 310 310 311 310 310 310 310 311 312 310 310 309 309 308 305 303 303 303 302 304 306 306 305 304 302 303 303 303 303 304 306 306 306 307 307 307 306 306 306 308 307 306
311 311 311 311 311 310 310 312 312 311 311 309 307 308 308 306 304 302 302 302 303 305 305 304 304 304 304 302 302 302 303 305 306 307 307 306 306 307 307 307 308 307 306
311 311 311 311 310 309 310 311 311 310 310 309 309 308 307 306 304 303 302 301 302 302 302 303 304 303 303 304 302 304 305 305 305 306 306 307 308 306 306 307 308 308 308
312 312 311 310 311 310 310 309 310 309 309 309 307 308 306 305 303 301 300 300 302 302 301 303 304 304 303 303 304 305 305 305 306 306 307 307 307 307 307 307 308 308 308
312 313 312 310 310 309 310 309 310 308 308 306 306 306 306 304 302 300 299 299 299 300 301 304 304 304 303 302 304 304 304 305 306 306 305 304 305 305 305 306 306 306 307
313 312 311 310 310 310 310 310 309 308 307 306 305 304 304 303 301 299 300 300 301 301 303 303 303 303 303 302 302 302 304 304 304 305 305 305 305 304 304 305 305 305 305
311 311 310 310 309 309 309 309 309 308 308 306 305 304 302 302 300 300 300 300 300 301 302 303 302 301 302 302 302 302 302 303 303 303 304 304 305 306 305 304 304 306 306
310 310 310 309 310 309 309 309 309 309 309 308 306 305 302 301 300 300 300 300 300 301 301 300 300 300 301 301 301 302 302 301 302 302 303 303 304 305 306 305 305 305 305
310 310 309 310 309 308 308 308 308 308 308 306 306 305 304 301 301 300 300 300 301 301 300 301 301 301 301 301 301 302 302 301 301 302 302 302 303 304 304 304 305 305 304
310 309 310 310 310 309 309 309 307 307 307 307 307 306 304 302 302 301 301 301 301 301 301 301 301 301 300 301 300 299 300 300 301 300 301 302 302 303 303 303 304 304 306
310 311 311 309 308 309 308 308 307 307 307 306 307 306 305 303 302 302 302 301 301 301 300 300 300 300 299 300 299 299 298 297 298 299 300 301 302 302 302 302 303 304 305
310 310 310 309 309 308 307 307 307 307 307 306 307 306 305 305 303 302 302 301 301 300 300 299 299 299 298 299 299 299 297 296 295 297 299 300 300 300 301 301 301 301 303
311 310 308 307 309 309 309 308 308 308 307 306 306 306 304 304 303 302 301 300 299 298 298 298 298 297 298 298 298 298 298 297 295 294 294 295 297 297 300 300 299 299 300
311 311 310 308 309 309 309 309 309 308 306 307 306 304 303 302 301 301 300 299 298 298 298 298 297 297 298 298 298 298 298 296 294 293 291 290 291 295 296 296 297 297 298
312 311 311 310 310 310 310 309 309 308 307 305 302 301 301 300 300 299 299 298 298 297 297 297 298 297 298 298 298 298 296 293 293 292 290 289 290 292 294 294 295 297 298
311 311 311 311 310 310 310 310 308 308 307 302 302 301 301 300 299 299 298 297 297 297 297 296 297 297 297 297 296 294 293 292 291 290 288 288 288 291 292 293 294 296 297
310 310 310 309 308 309 310 309 307 306 304 302 302 301 300 299 298 298 297 297 296 296 296 296 296 297 295 294 293 292 292 291 289 288 288 287 288 289 291 291 293 296 297
311 308 308 309 309 308 309 308 305 304 304 303 302 301 300 299 298 298 297 296 296 296 297 296 295 294 293 292 292 291 289 288 288 288 288 288 288 288 289 291 293 296 297
307 309 309 310 309 309 308 306 305 304 304 302 301 300 299 299 298 297 297 297 297 297 296 295 294 292 291 291 290 288 288 287 288 288 288 290 290 291 292 293 294 295 296
Wind_Speed
15 12 10 8 5 6 4 3 2 5 7 8 8 10 14 17 16 14 10 11 13 13 13 12 12 13 16 18 16 12 9 8 3 1 3 7 8 11 15 14 19 22 23
17 12 11 10 8 7 5 3 4 6 8 8 8 8 13 17 17 15 13 12 13 14 14 13 13 14 17 18 18 18 13 9 6 1 2 7 8 11 13 15 15 17 17
18 13 13 11 11 8 5 3 5 7 9 8 7 7 10 15 18 17 13 13 11 12 13 11 13 15 17 19 20 20 18 8 6 3 2 4 6 9 11 14 14 14 14
20 16 15 12 10 7 6 5 6 8 9 8 7 7 8 13 17 19 15 13 11 12 14 11 11 14 15 17 18 19 19 7 2 10 7 3 3 5 7 10 13 15 16
21 19 15 11 9 7 7 7 8 9 9 9 8 8 8 9 15 18 16 14 12 12 13 13 11 12 13 10 13 17 18 12 9 7 5 2 1 2 3 3 4 7 12
22 18 13 12 9 8 7 7 8 8 10 9 9 10 9 8 14 18 12 14 11 11 13 15 12 13 15 11 10 13 13 11 8 4 3 1 0 0 2 2 4 4 2
21 17 14 12 10 8 7 9 8 7 8 9 9 10 7 7 12 15 12 13 14 8 11 14 14 13 15 14 10 10 10 10 7 5 3 2 1 1 2 1 4 3 1
21 17 15 12 10 8 7 9 6 7 7 8 8 7 6 6 7 11 13 13 11 8 9 11 13 13 12 12 12 10 10 10 8 6 4 4 2 2 2 2 4 2 1
20 15 15 13 12 9 8 7 7 7 7 7 7 7 9 8 8 12 14 12 11 10 9 10 12 12 13 11 11 11 10 9 8 5 4 3 2 1 2 4 6 2 1
21 17 15 11 11 9 8 6 6 6 7 8 7 8 7 7 7 10 12 12 11 9 12 11 9 11 13 13 10 11 11 11 9 5 4 3 4 3 4 5 6 5 3
20 18 14 10 11 7 6 7 5 5 5 7 7 7 6 6 6 9 10 11 10 11 14 13 10 8 13 15 10 10 12 12 7 5 3 3 4 1 4 4 5 3 3
16 14 14 10 8 7 6 5 4 4 2 5 3 4 5 2 8 9 10 10 10 11 12 10 10 7 8 14 13 11 10 9 6 4 4 5 4 3 3 3 4 4 3
15 15 12 9 7 7 6 4 3 3 3 1 1 2 2 3 8 9 9 11 10 9 8 8 9 8 8 10 12 13 12 11 9 6 6 7 6 5 4 3 5 4 3
16 12 9 7 6 5 5 6 6 6 5 5 4 3 1 3 7 8 11 13 11 11 7 6 8 9 9 9 11 11 12 15 11 9 8 9 6 6 5 4 5 5 5
14 11 8 6 6 4 5 7 9 9 8 8 9 6 3 1 3 5 10 11 11 10 9 9 10 12 14 13 14 10 11 13 17 13 10 9 6 6 4 3 5 5 4
12 8 6 5 4 5 7 8 5 6 5 6 10 7 6 1 1 3 7 11 8 8 8 8 10 10 10 11 13 13 8 10 13 18 13 11 9 7 6 4 3 4 4
10 7 6 5 6 9 7 6 7 5 7 9 10 9 8 5 2 4 8 12 9 7 7 7 8 9 10 10 12 12 11 12 11 11 17 13 12 10 6 6 7 5 5
7 5 5 5 5 5 3 5 5 6 9 8 7 12 11 9 5 5 8 10 9 5 6 7 10 10 11 6 6 9 10 12 14 13 12 14 11 10 8 7 7 6 7
9 6 5 5 8 5 5 6 7 5 7 7 5 5 11 9 9 10 11 9 7 8 9 8 9 9 10 9 8 8 9 12 15 13 12 11 12 11 9 12 13 12 8
8 6 4 5 3 4 7 7 8 9 6 6 5 4 5 7 7 6 5 4 6 9 9 10 11 11 10 9 10 11 7 9 12 14 14 13 12 11 9 8 11 14 15
9 7 8 7 8 8 8 8 11 9 5 5 4 4 3 3 2 2 4 5 7 11 11 12 13 11 12 12 12 8 7 9 12 16 18 18 15 13 10 11 12 12 11
9 8 7 9 9 8 10 10 11 7 5 5 6 7 2 2 2 4 5 6 9 11 12 12 12 12 12 10 9 5 7 11 15 18 19 17 14 13 11 11 11 11 11
7 8 8 9 9 9 11 11 6 3 5 10 9 6 2 2 2 2 3 8 12 12 13 15 13 12 7 7 7 8 12 16 19 20 19 16 14 12 11 12 11 11 12
5 7 8 9 10 10 9 7 4 5 9 12 10 5 3 4 3 4 7 9 11 10 12 12 12 6 6 6 7 11 17 20 20 18 16 14 13 12 11 12 11 9 11
6 6 6 11 12 9 6 6 10 11 12 13 11 7 4 5 4 4 4 8 9 10 10 9 6 5 7 11 14 18 20 18 17 15 13 12 11 10 11 11 10 11 12
5 8 10 6 6 6 10 14 15 15 15 16 10 6 5 4 3 6 8 10 12 10 7 5 6 8 10 15 19 18 17 17 15 13 13 13 11 9 6 9 13 12 12
Wind_Direction
181 179 182 193 199 223 249 277 303 326 332 330 337 348 356 359 4 7 4 359 1 2 356 350 345 349 350 358 358 349 325 300 269 251 67 37 48 62 64 65 70 67 54
183 184 194 202 210 224 232 274 307 321 326 318 325 343 360 4 3 3 2 356 356 2 359 354 351 350 351 355 359 349 333 302 262 238 93 59 55 51 60 61 60 62 57
181 187 198 206 214 222 237 262 305 310 320 323 318 328 349 359 1 1 357 357 355 2 359 352 354 349 348 349 359 355 349 320 229 237 110 73 53 61 61 61 56 52 57
185 191 200 208 213 212 236 259 286 301 311 319 314 310 326 351 356 356 351 351 353 358 354 356 352 353 349 344 357 7 9 24 144 132 122 96 62 64 69 66 56 47 49
187 196 203 207 216 226 248 271 286 294 295 305 306 301 314 342 356 352 350 351 346 357 2 357 355 353 355 359 359 9 22 41 85 94 82 86 71 4 53 73 23 47 48
190 197 200 210 224 236 258 287 293 290 292 295 299 304 312 339 349 352 349 357 353 348 358 4 5 7 7 11 9 15 24 30 38 43 53 19 20 107 138 83 11 355 356
193 198 202 219 237 247 260 274 281 291 302 300 300 303 310 332 347 352 355 347 348 334 352 359 3 9 12 13 22 20 23 32 35 18 356 357 349 146 153 108 2 12 47
196 199 207 221 235 247 265 275 271 283 305 310 311 303 297 316 326 349 357 352 355 353 344 356 4 4 8 5 5 1 6 13 20 22 13 3 336 180 181 345 341 348 58
196 203 214 224 238 241 250 260 272 284 298 308 302 295 285 317 334 344 345 345 355 7 359 356 3 9 6 354 351 355 355 359 358 357 11 359 1 341 307 335 3 201 260
202 210 212 228 236 233 237 241 269 282 294 302 298 298 301 310 324 333 341 340 341 348 358 351 349 2 4 357 357 357 354 350 342 5 11 1 318 299 310 312 320 277 277
213 219 215 227 211 234 234 261 269 293 309 310 303 303 296 317 331 336 338 339 343 334 338 345 346 347 2 3 360 358 352 347 346 326 352 61 74 350 344 326 323 3 290
217 215 207 210 238 239 234 261 278 301 296 312 293 329 301 334 342 345 347 347 340 338 342 352 2 345 357 3 5 352 346 345 349 337 321 315 296 287 293 346 335 314 301
210 189 197 227 222 232 238 253 237 255 290 262 206 338 342 301 353 359 3 2 3 2 4 5 1 357 351 355 6 7 2 353 353 347 336 327 314 302 288 282 290 305 324
178 180 188 201 221 229 240 252 258 255 255 245 250 252 9 9 7 8 4 6 7 6 6 5 10 10 8 349 349 358 11 6 347 335 328 326 310 303 278 271 272 301 292
181 187 194 207 223 239 260 270 273 282 280 270 270 237 214 26 24 8 354 1 1 1 358 7 3 3 2 -0 358 351 358 7 1 353 347 338 327 316 300 291 278 285 279
183 192 192 211 238 271 281 297 318 288 287 285 268 248 229 226 230 323 342 350 350 350 4 18 13 2 348 348 349 350 354 360 1 355 348 337 330 312 309 292 285 274 276
202 197 212 224 260 282 277 282 290 283 291 283 265 242 233 245 235 303 329 344 341 337 343 353 359 2 358 356 354 348 347 352 343 352 353 344 351 337 300 296 299 289 283
202 204 219 243 277 264 223 273 276 297 320 316 265 234 230 232 240 277 305 323 342 346 347 337 330 333 335 334 22 337 353 5 358 346 341 349 350 350 357 0 350 299 272
203 216 224 246 254 253 276 286 306 318 327 328 311 247 226 238 247 265 283 293 307 317 321 333 331 326 334 334 342 330 335 358 357 351 356 351 355 351 4 359 1 357 333
209 215 224 255 289 266 281 288 311 319 321 317 300 247 225 224 239 268 281 310 320 321 326 327 334 332 328 324 322 310 309 337 351 349 344 333 326 336 338 340 339 333 335
202 228 229 251 268 278 291 309 312 319 304 297 238 203 204 221 269 287 311 320 329 330 327 332 329 330 327 321 321 305 301 328 335 331 328 325 319 312 311 312 315 319 317
233 241 236 259 278 289 298 312 312 305 277 211 153 134 141 283 306 335 327 329 330 336 338 333 327 329 328 326 324 305 319 328 329 326 322 321 315 308 304 304 311 313 324
227 240 252 272 282 290 307 320 323 285 211 170 159 165 217 267 259 326 350 342 338 339 341 339 335 328 323 335 328 330 328 326 323 319 314 312 311 306 302 302 304 306 319
241 260 270 281 295 294 298 308 239 192 164 177 185 189 245 239 242 263 330 337 332 334 338 341 337 319 308 315 322 324 323 321 319 317 311 305 304 303 298 296 290 296 315
261 267 280 279 278 292 284 222 191 182 187 195 196 198 201 235 270 283 322 332 314 318 311 315 316 311 325 331 330 327 325 326 328 328 326 320 311 305 300 297 292 303 304
260 284 288 263 238 236 219 200 198 199 212 209 200 211 227 258 300 310 309 314 319 322 322 314 317 329 333 333 331 333 336 338 338 335 331 330 327 325 314 310 304 290 304